This demonstration page uses our WeatherBlox Daily Observations layout. Learn more.

Left ArrowRight Arrow

41.86663, -103.66717

Hourly Observations for June 18, 2016

Temp ( °F °C ) Dew Point ( °F °C ) Humidity (%) Winds ( mph kmh ) Pressure ( in mb ) Visibility ( mi km ) Precip ( " mm )
12:53 am 00:53 Clear 68 20 54 12.2 61 61 SE 12 19 30.04 1017 10 16 0.00 0.00
1:53 am 01:53 Clear 65 18.3 54 12.2 68 68 SE 9 15 30.05 1018 10 16 0.00 0.00
2:53 am 02:53 Clear 66 18.9 53 11.7 63 63 ESE 5 7 30.05 1018 10 16 0.00 0.00
3:53 am 03:53 Clear 61 16.1 54 12.2 78 78 N 6 9 30.06 1018 10 16 0.00 0.00
4:53 am 04:53 Clear 63 17.2 54 12.2 73 73 E 9 15 30.10 1019 10 16 0.00 0.00
5:53 am 05:53 Sunny 62 16.7 55 12.8 78 78 SE 10 17 30.10 1019 10 16 0.00 0.00
6:50 am 06:50 Partly Cloudy 63 17 55 13 77 77 ESE 21 33 30.12 1020 10 16 0.00 0.00
6:53 am 06:53 Partly Cloudy 61 16.1 56 13.3 84 84 ESE 21 33 30.13 1020 10 16 0.00 0.00
7:01 am 07:01 Mostly Cloudy 61 16.1 56 13.3 84 84 ESE 24 39 30.15 1021 10 16 0.00 0.00
7:09 am 07:09 Partly Cloudy 61 16.1 56 13.3 84 84 ESE 18 30 30.15 1021 10 16 0.00 0.00
7:53 am 07:53 Sunny 64 17.8 57 13.9 78 78 SE 15 24 30.13 1020 10 16 0.00 0.00
8:53 am 08:53 Sunny 70 21.1 57 13.9 64 64 SE 10 17 30.11 1020 10 16 0.00 0.00
9:53 am 09:53 Sunny 76 24.4 56 13.3 50 50 SSE 15 24 30.08 1019 10 16 0.00 0.00
10:53 am 10:53 Sunny 82 27.8 55 12.8 40 40 S 13 20 30.06 1018 10 16 0.00 0.00
11:53 am 11:53 Sunny 85 29.4 55 12.8 36 36 S 13 20 30.04 1017 10 16 0.00 0.00
12:53 pm 12:53 Sunny 90 32.2 57 13.9 33 33 S 12 19 30.02 1017 10 16 0.00 0.00
1:53 pm 13:53 Sunny 93 33.9 57 13.9 30 30 SSE 8 13 29.99 1016 10 16 0.00 0.00
2:53 pm 14:53 Sunny 95 35 48 8.9 20 20 SSE 12 19 29.96 1015 10 16 0.00 0.00
3:53 pm 15:53 Sunny 95 35 47 8.3 19 19 S 10 17 29.96 1014 10 16 0.00 0.00
4:53 pm 16:53 Sunny 95 35 46 7.8 19 19 S 13 20 29.94 1014 10 16 0.00 0.00
5:53 pm 17:53 Sunny 93 33.9 51 10.6 24 24 SSE 17 28 29.93 1014 10 16 0.00 0.00
6:53 pm 18:53 Sunny 86 30 62 16.7 45 45 SE 22 35 29.96 1015 10 16 0.00 0.00
7:53 pm 19:53 Sunny 82 27.8 60 15.6 47 47 SE 16 26 29.98 1015 10 16 0.00 0.00
8:53 pm 20:53 Clear 79 26.1 58 14.4 49 49 SE 13 20 30.00 1016 10 16 0.00 0.00
9:53 pm 21:53 Clear 76 24.4 58 14.4 54 54 SE 10 17 30.02 1017 10 16 0.00 0.00
10:53 pm 22:53 Clear 75 23.9 58 14.4 55 55 SE 15 24 30.01 1016 10 16 0.00 0.00
11:53 pm 23:53 Clear 72 22.2 59 15 64 64 ESE 9 15 30.01 1016 10 16 0.00 0.00

Powered by AerisWeather